Cloud_Cover
97 100 100 100 100 100 100 100 100 100 100 100 100 100 100 100 100 100 100 100 100 100 100 100 100 100 100 100 44 0 0 0 0 0 0 0 0 0 0 0 100 100 100 99 61 98 73
98 100 98 94 100 100 100 100 100 100 100 100 100 100 100 100 100 100 100 100 100 100 100 100 100 100 100 100 13 2 2 0 0 0 0 0 0 0 0 0 76 100 98 37 22 5 4
100 100 100 84 100 100 100 100 100 100 100 100 100 100 100 100 100 100 100 100 100 100 100 100 100 100 100 97 6 5 5 0 0 0 0 0 0 0 0 0 1 80 70 87 3 1 0
100 100 95 100 100 98 100 100 100 100 100 100 99 100 100 100 100 100 100 100 100 100 100 100 100 100 100 28 92 80 5 2 0 0 0 0 0 0 0 0 0 1 5 0 0 22 86
100 100 100 100 100 100 82 100 100 100 100 96 19 100 100 100 100 100 100 100 100 100 100 100 100 100 100 100 100 100 5 5 0 0 0 0 0 0 0 0 0 0 3 16 51 46 4
97 100 100 100 100 100 100 99 100 100 94 100 57 100 100 100 100 100 100 100 100 100 100 100 100 100 100 100 100 100 35 7 0 0 0 0 0 0 0 0 0 0 0 0 7 22 2
100 100 100 100 100 100 100 100 100 100 62 66 100 100 100 100 100 100 100 100 100 100 93 72 83 100 100 100 100 100 92 100 5 5 0 0 1 0 0 2 0 0 2 0 0 0 0
100 100 96 100 100 100 100 100 100 100 100 94 97 100 100 100 100 100 100 100 100 100 100 96 91 100 100 100 100 100 100 82 93 5 0 5 0 0 0 1 5 0 0 5 5 5 4
100 100 100 100 100 100 100 100 100 100 92 100 100 100 100 100 100 100 100 100 100 89 100 100 100 100 100 100 100 100 100 100 100 16 4 6 3 0 0 0 0 0 0 0 1 4 6
100 100 100 100 100 100 100 87 100 71 98 100 100 100 100 100 100 100 100 100 100 100 100 100 100 100 100 100 100 100 100 100 100 100 5 5 3 0 0 4 0 0 0 0 0 0 3
100 100 100 100 100 100 100 100 100 92 82 100 100 100 100 100 100 100 100 100 100 100 100 100 100 100 100 100 100 100 100 100 100 100 54 5 3 2 2 1 0 0 0 0 0 0 0
100 100 100 100 100 100 100 100 100 84 66 100 100 100 100 100 100 100 100 100 100 100 100 100 100 100 100 100 100 100 100 100 100 100 100 5 5 4 5 5 5 4 3 0 0 0 0
100 100 100 100 100 96 100 100 100 51 72 94 100 100 100 100 100 100 100 100 100 100 100 100 100 100 100 100 100 100 100 100 100 94 100 5 11 8 24 8 26 34 2 3 0 0 0
100 100 100 100 100 84 100 100 100 100 64 100 100 100 100 100 100 100 100 100 98 100 100 100 100 100 100 100 100 100 100 100 100 100 100 99 12 6 89 60 24 11 4 0 0 0 0
100 100 100 100 100 95 100 100 100 100 100 100 100 100 100 100 100 100 100 100 100 100 100 100 100 100 100 100 100 100 100 100 100 100 100 100 93 22 33 79 68 43 7 1 0 0 0
100 100 100 100 100 100 100 100 100 100 100 81 100 100 100 100 100 100 100 100 100 100 100 100 100 100 100 100 100 100 100 100 100 100 82 100 100 85 31 97 100 100 45 0 2 0 1
100 100 100 100 100 100 100 97 86 100 100 100 100 100 100 100 100 100 79 100 100 100 100 100 100 100 100 100 100 100 100 100 100 100 98 100 100 53 67 100 100 100 26 2 2 1 0
100 100 100 100 100 100 100 100 100 100 100 100 100 90 100 100 100 89 100 100 100 100 100 100 100 100 100 100 100 100 100 100 100 100 82 100 100 100 100 100 100 100 20 5 5 2 3
100 100 100 100 100 100 100 100 100 100 80 100 100 100 100 100 100 100 100 100 100 100 100 100 100 100 100 100 100 100 100 100 100 100 99 100 100 100 100 100 100 100 11 5 5 5 5
100 100 100 100 100 100 100 100 100 100 100 100 100 100 100 100 100 100 100 100 100 100 100 100 100 100 100 100 100 100 100 100 100 100 100 100 100 100 100 100 100 100 74 47 5 5 5
100 100 100 100 100 100 100 100 100 100 100 100 100 100 100 100 100 100 100 100 100 100 100 100 100 100 100 100 100 100 100 100 100 100 100 100 100 100 100 100 100 100 99 13 5 76 37
100 100 100 100 100 100 100 100 100 100 100 100 100 90 100 100 100 100 100 100 100 100 100 100 100 100 100 100 100 100 100 100 100 100 100 100 100 100 100 100 100 100 100 65 100 100 60
100 100 100 100 100 100 100 100 100 100 100 100 100 100 100 100 100 100 100 100 100 100 100 100 100 100 100 100 100 100 100 100 100 100 100 100 100 100 100 100 100 100 100 100 100 95 48
100 100 100 100 100 100 100 100 100 100 100 100 100 100 100 100 100 100 100 100 100 100 100 100 100 100 100 100 100 100 100 100 100 100 100 100 100 72 82 100 98 100 100 100 100 65 84
100 100 100 100 100 100 100 100 100 100 100 100 100 100 100 100 100 100 100 100 100 100 100 100 100 100 100 100 100 100 100 100 100 100 100 100 100 94 100 99 100 100 100 100 100 100 100
100 100 100 100 100 100 100 100 100 100 100 100 100 100 100 100 100 100 100 100 100 100 100 100 100 100 100 100 100 100 100 100 100 100 100 100 100 100 37 97 54 100 100 100 61 99 100
100 100 100 100 100 100 100 100 100 100 100 100 100 100 100 100 100 100 100 100 100 100 100 100 100 100 100 100 100 100 100 100 100 100 100 100 100 100 100 57 100 100 100 98 52 90 97
100 100 100 100 100 100 100 100 100 100 100 100 100 100 100 100 100 100 100 100 100 100 100 100 100 100 100 100 100 100 100 100 100 100 100 100 100 100 100 95 100 100 98 94 84 97 100
100 100 100 100 100 100 100 100 100 100 100 100 100 100 100 100 100 100 100 100 100 100 100 100 100 100 100 100 100 100 100 100 100 100 100 100 100 100 100 100 100 95 53 86 75 99 100